Regional Weather Roundup
Issued by NWS

Home | Current Version | Previous Version | Graphics & Text | Print | Product List | Glossary On
Versions: 1 2 3 4 5 6 7 8 9 10 11 12 13 14 15 16 17 18 19 20 21 22 23 24 25 26 27 28 29 30 31 32 33 34 35 36 37 38 39 40 41 42 43 44 45 46 47 48 49 50
000
ASUS45 KCYS 271810
RWRWY

WYOMING REGIONAL WEATHER ROUNDUP
NATIONAL WEATHER SERVICE CHEYENNE WY
1100 AM MST TUE JAN 27 2015

NOTE:  "FAIR" INDICATES FEW OR NO CLOUDS BELOW 12,000 FEET
WITH NO SIGNIFICANT WEATHER AND/OR OBSTRUCTIONS TO VISIBILITY.

WYZ001-271900-
YELLOWSTONE NATIONAL PARK

CITY           SKY/WX    TMP DP  RH WIND       PRES   REMARKS
LK YELLOWSTONE   N/A     22  18  85 SE3       30.25S
6HR MIN TEMP:   2; 6HR MAX TEMP:  23;

W YELLOWSTONE  NOT AVBL

$$
WYZ002>013-054>058-071-098>099-271900-
NORTHERN WYOMING

CITY           SKY/WX    TMP DP  RH WIND       PRES   REMARKS
JACKSON        FOG       16  16 100 CALM      30.27F VSB 1/4
CODY           FAIR      48  28  46 CALM      30.02F
GREYBULL       FAIR      26  22  84 CALM      30.06S
6HR MIN TEMP:  12; 6HR MAX TEMP:  26;

WORLAND        FAIR      25  21  85 SW5       30.05R WCI  19
6HR MIN TEMP:  11; 6HR MAX TEMP:  26;

SHERIDAN       FAIR      57  34  41 CALM      29.95S
6HR MIN TEMP:  32; 6HR MAX TEMP:  57;

BUFFALO        FAIR      60  27  28 CALM      30.00F
6HR MIN TEMP:  42; 6HR MAX TEMP:  67;

GILLETTE       FAIR      60  29  30 SW16G23   29.99R
6HR MIN TEMP:  47; 6HR MAX TEMP:  60;

HULETT           N/A    N/A N/A N/A MISG        N/A
NEWCASTLE      FAIR      55  25  30 CALM      30.04F

$$
WYZ014>020-022>026-101>103-271900-
CENTRAL WYOMING

CITY           SKY/WX    TMP DP  RH WIND       PRES   REMARKS
BIG PINEY      FAIR      28  20  71 CALM      30.26S
6HR MIN TEMP:  10; 6HR MAX TEMP:  29;

PINEDALE       FAIR      27  18  69 NW5       30.26S WCI  21
DUBOIS         FAIR      41  19  42 NW20      30.16S
LANDER         FAIR      33  26  75 CALM      30.12F
6HR MIN TEMP:  22; 6HR MAX TEMP:  33;

RIVERTON       FAIR      38  29  70 VRB3      30.13F
6HR MIN TEMP:  22; 6HR MAX TEMP:  38;

CASPER         FAIR      53  27  36 SW24      30.11F
6HR MIN TEMP:  42; 6HR MAX TEMP:  54;

DOUGLAS        FAIR      63  23  21 N5        30.08F
6HR MIN TEMP:  33; 6HR MAX TEMP:  63;


$$
WYZ021-027>030-104>119-271900-
SOUTHERN WYOMING

CITY           SKY/WX    TMP DP  RH WIND       PRES   REMARKS
EVANSTON       PTSUNNY   42  25  50 SW8       30.24S
6HR MIN TEMP:  32; 6HR MAX TEMP:  43;

KEMMERER       FAIR      36  23  60 NW3       30.25S
FORT BRIDGER   FAIR      34  31  90 CALM      30.28R
ROCK SPRINGS   FAIR     N/A N/A N/A MISG      30.24S
DIXON          FAIR      36  24  64 CALM      30.32F
RAWLINS        FAIR      51  22  31 SW16G25   30.25S
6HR MIN TEMP:  25; 6HR MAX TEMP:  52;

SARATOGA       FAIR      50  25  37 S6        30.28S
LARAMIE        FAIR      56  20  24 W20G25    30.23S
6HR MIN TEMP:  29; 6HR MAX TEMP:  56;

CHEYENNE       FAIR      64  18  17 W23G31    30.16S
6HR MIN TEMP:  41; 6HR MAX TEMP:  64;

TORRINGTON     FAIR      57  30  35 N3        30.06F
6HR MIN TEMP:  28; 6HR MAX TEMP:  57;

PINE BLUFFS    FAIR      66  21  18 W13       30.12F

$$



USA.gov is the U.S. government's official web portal to all federal, state and local government web resources and services.